Flag for U.S.A. Weather past 2 weeks in Ontario, California, U.S.A.

Now
65 °F

Partly sunny.


Feels Like: 65 °F
Forecast: 49 / 74 °F
Wind: No wind

Location: Ontario International Airport

Current Time: Dec 21, 2014 at 5:04:19 PM

Latest Report: Dec 21, 2014 at 3:53 PM


Visibility: 6 mi

Pressure: 30.04 "Hg

Humidity: 54%

Dew point: 48 °F

Location of OntarioLocation

Historic Weather in Ontario — Graph

°F

Ontario temperature yesterday

Maximum temperature yesterday: 58 °F (at 11:53 AM)
Minimum temperature yesterday: 47 °F (at 3:53 AM)
Average temperature yesterday: 53 °F

Past Weeks' High & Low Weather Summary

 TemperatureHumidityPressure
High77 °F (Dec 8, 1:53 PM)97% (Dec 13, 2:53 AM)30.24 "Hg (Dec 13, 2:53 AM)
Low43 °F (Dec 14, 6:53 AM)23% (Dec 9, 3:53 PM)29.82 "Hg (Dec 12, 4:53 AM)
Average57 °F68%30.06 "Hg
* Reported Dec 6 3:53 PM — Dec 21 3:53 PM, Ontario, Weather by CustomWeather, © 2014

Note: Actual official high and low records may vary slightly from our data, if they occured in-between our weather recording intervals... More about our weather records

Advertising

Ontario weather history for previous 24 hours

 ConditionsComfort  
Time TempWeatherWind HumidityBarometerVisibility
3:53 PM
Dec 21
65 °FPartly sunny.No wind54%30.04 "Hg6 mi
2:53 PM65 °FPartly sunny.3 mph54%30.03 "Hg7 mi
1:53 PM64 °FPartly sunny.No wind56%30.04 "Hg7 mi
12:53 PM62 °FPartly sunny.No wind60%30.07 "Hg6 mi
11:53 AM60 °FPartly sunny.No wind65%30.11 "Hg5 mi
10:53 AM58 °FPartly sunny.No wind70%30.14 "Hg3 mi
9:53 AM56 °FPartly sunny.No wind75%30.15 "Hg3 mi
8:53 AM53 °FPartly sunny.No wind80%30.16 "Hg3 mi
7:53 AM48 °FFog.3 mph89%30.16 "Hg3 mi
6:53 AM45 °FFog.3 mph90%30.14 "Hg4 mi
5:53 AM47 °FFog.No wind86%30.13 "Hg4 mi
4:53 AM48 °FFog.3 mph86%30.11 "Hg5 mi
3:53 AM46 °FPassing clouds.No wind89%30.11 "Hg7 mi
2:53 AM48 °FFog.No wind86%30.13 "Hg6 mi
1:53 AM49 °FPassing clouds.No wind84%30.14 "Hg6 mi
12:53 AM48 °FFog.6 mph86%30.15 "Hg6 mi
11:53 PM
Dec 20
51 °FHaze.No wind80%30.15 "Hg6 mi
10:53 PM50 °FPassing clouds.No wind80%30.16 "Hg6 mi
9:53 PM51 °FPartly cloudy.3 mph80%30.15 "Hg6 mi
8:53 PM52 °FPassing clouds.No wind80%30.16 "Hg7 mi
7:53 PM53 °FPassing clouds.No wind77%30.15 "Hg6 mi
6:53 PM54 °FPassing clouds.No wind77%30.14 "Hg8 mi
5:53 PM55 °FPassing clouds.3 mph74%30.15 "Hg8 mi
Weather by CustomWeather, © 2014

See weather overviewHow to use our weather pages